sat.trackr.live / text

‹ back to catalog

STARLINK-4100

NORAD 53144 · 2022-083N

PAYLOAD ACTIVE UNKNOWN

§ Identity

Operator
Country
US
Launch date
2022-07-17
Launch site
AFETR
Launch vehicle
Mass (kg)
RCS (m²)

Purposes: comms

External: N2YO · Heavens-Above · Gunter

§ Orbital elements

Epoch: 2026-09-19T22:17:41.259264Z

Period
93.90 min
Inclination
53.1596°
Eccentricity
0.0001513
Mean motion
15.33562864 rev/d
Perigee alt
464.2 km
Apogee alt
466.2 km
Semi-major
6,843.3 km
B*
-6.7362e-5
RAAN
6.7054°
Arg perigee
141.7185°
Mean anomaly
218.3925°
Rev number
23,075

§ Raw data

STARLINK-41001 53144U 22083N   26262.92894976 -.00002589  00000+0 -67362-4 0  99972 53144  53.1596   6.7054 0001513 141.7185 218.3925 15.33562864230757

JSON: /api/v1/satellites/53144 · /tle

For live sub-satellite position, see the globe view (requires WebGL).

§ Visibility from observer

Set your observer location to see the next 7 days of passes ≥ 10°. The values pass through the URL so the page stays shareable.

No JS? Fill the form by hand. The geolocation button needs JavaScript.